TimeMDT,TemperatureF,Dew PointF,Humidity,Sea Level PressureIn,VisibilityMPH,Wind Direction,Wind SpeedMPH,Gust SpeedMPH,PrecipitationIn,Events,Conditions,WindDirDegrees,DateUTC
12:53 AM,51.1,48.0,89,30.25,10.0,SE,11.5,-,N/A,,Clear,140,2013-09-16 06:53:00
1:53 AM,50.0,48.0,93,30.24,10.0,SSE,12.7,-,N/A,,Clear,150,2013-09-16 07:53:00
2:53 AM,48.9,48.0,97,30.22,10.0,SSE,11.5,-,N/A,,Clear,150,2013-09-16 08:53:00
3:45 AM,50.0,48.2,94,30.21,10.0,SSE,12.7,19.6,N/A,,Scattered Clouds,150,2013-09-16 09:45:00
3:53 AM,50.0,48.0,93,30.21,9.0,SSE,12.7,20.7,N/A,,Mostly Cloudy,150,2013-09-16 09:53:00
4:02 AM,50.0,48.2,94,30.21,8.0,SSE,12.7,-,N/A,,Mostly Cloudy,150,2013-09-16 10:02:00
4:53 AM,51.1,48.9,92,30.20,7.0,SSE,13.8,-,N/A,,Overcast,150,2013-09-16 10:53:00
5:32 AM,51.8,50.0,94,30.19,2.0,SSE,12.7,-,N/A,,Overcast,150,2013-09-16 11:32:00
5:39 AM,51.8,50.0,94,30.19,1.2,SSE,13.8,-,N/A,,Overcast,150,2013-09-16 11:39:00
5:53 AM,51.1,50.0,96,30.19,1.0,SSE,12.7,-,N/A,,Mist,150,2013-09-16 11:53:00
6:53 AM,51.1,50.0,96,30.17,2.0,SE,16.1,-,N/A,,Overcast,140,2013-09-16 12:53:00
7:05 AM,51.8,50.0,94,30.17,4.0,SE,11.5,21.9,N/A,,Overcast,140,2013-09-16 13:05:00
7:53 AM,52.0,50.0,93,30.17,7.0,SSE,13.8,23.0,N/A,,Overcast,150,2013-09-16 13:53:00
8:53 AM,53.1,51.1,93,30.17,10.0,SSE,12.7,-,N/A,,Overcast,150,2013-09-16 14:53:00
9:12 AM,53.6,51.8,94,30.15,10.0,SE,13.8,23.0,N/A,,Overcast,140,2013-09-16 15:12:00
9:48 AM,55.4,51.8,88,30.14,10.0,SSE,20.7,28.8,N/A,,Mostly Cloudy,150,2013-09-16 15:48:00
9:53 AM,57.9,51.1,78,30.14,10.0,SSE,18.4,27.6,N/A,,Mostly Cloudy,150,2013-09-16 15:53:00
10:16 AM,60.8,51.8,72,30.12,10.0,SSE,16.1,26.5,N/A,,Scattered Clouds,150,2013-09-16 16:16:00
10:53 AM,64.0,52.0,65,30.11,10.0,SSE,20.7,32.2,N/A,,Clear,150,2013-09-16 16:53:00
11:53 AM,68.0,52.0,56,30.07,10.0,SSE,21.9,28.8,N/A,,Clear,150,2013-09-16 17:53:00
12:53 PM,71.1,51.1,49,30.04,10.0,SSE,21.9,34.5,N/A,,Clear,150,2013-09-16 18:53:00
1:53 PM,73.9,51.1,45,30.00,10.0,SSE,27.6,34.5,N/A,,Clear,150,2013-09-16 19:53:00
2:53 PM,75.0,51.1,43,29.97,10.0,SSE,20.7,32.2,N/A,,Clear,150,2013-09-16 20:53:00
3:53 PM,75.0,51.1,43,29.94,10.0,SSE,23.0,31.1,N/A,,Clear,150,2013-09-16 21:53:00
4:53 PM,73.9,51.1,45,29.92,10.0,SSE,25.3,34.5,N/A,,Clear,150,2013-09-16 22:53:00
5:53 PM,72.0,52.0,49,29.91,10.0,SSE,20.7,26.5,N/A,,Clear,150,2013-09-16 23:53:00
6:53 PM,69.1,52.0,54,29.91,10.0,SSE,15.0,-,N/A,,Clear,150,2013-09-17 00:53:00
7:53 PM,64.9,52.0,63,29.91,10.0,SSE,12.7,-,N/A,,Clear,150,2013-09-17 01:53:00
8:53 PM,63.0,51.1,65,29.91,10.0,SE,13.8,20.7,N/A,,Clear,140,2013-09-17 02:53:00
9:53 PM,61.0,51.1,70,29.89,10.0,SE,13.8,-,N/A,,Clear,140,2013-09-17 03:53:00
10:53 PM,59.0,50.0,72,29.88,10.0,SSE,13.8,-,N/A,,Clear,150,2013-09-17 04:53:00
11:53 PM,57.0,50.0,77,29.87,10.0,SE,10.4,-,N/A,,Clear,140,2013-09-17 05:53:00